When you browse on this site, cookies collect data to enhance your experience and personalize the content and advertising you see.
Visit our Privacy Policy to learn more. By continuing to use the site, you agree to this use of cookies and data.

Meteo orario Townsville

Oggi, 23 Settembre, Mercoledi

Tempo Temperatura Precipitazioni Vento Pressione Umidità
00:00 +23°C° 0 mm 2 m/s 755 mm Hg 94%
01:00 +23°C° 0 mm 2 m/s 754 mm Hg 94%
02:00 +23°C° 0 mm 2 m/s 754 mm Hg 94%
03:00 +23°C° 0 mm 2 m/s 754 mm Hg 93%
04:00 +23°C° 0 mm 2 m/s 754 mm Hg 93%
05:00 +23°C° 0 mm 2 m/s 754 mm Hg 90%
06:00 +24°C° 0 mm 2 m/s 755 mm Hg 88%
07:00 +24°C° 0 mm 2 m/s 755 mm Hg 86%
08:00 +26°C° 0 mm 2 m/s 755 mm Hg 76%
09:00 +28°C° 0 mm 2 m/s 755 mm Hg 66%
10:00 +30°C° 0 mm 1 m/s 755 mm Hg 60%
11:00 +30°C° 0 mm 2 m/s 754 mm Hg 57%
12:00 +31°C° 0 mm 3 m/s 754 mm Hg 55%
13:00 +31°C° 0 mm 3 m/s 753 mm Hg 53%
14:00 +32°C° 0 mm 4 m/s 753 mm Hg 56%
15:00 +30°C° 0 mm 4 m/s 753 mm Hg 59%
16:00 +29°C° 0 mm 4 m/s 752 mm Hg 62%
17:00 +27°C° 0 mm 3 m/s 753 mm Hg 68%
18:00 +26°C° 0 mm 3 m/s 753 mm Hg 75%
19:00 +24°C° 0 mm 2 m/s 753 mm Hg 81%
20:00 +24°C° 0.1 mm 2 m/s 754 mm Hg 84%
21:00 +23°C° 0.1 mm 1 m/s 754 mm Hg 86%
22:00 +23°C° 0.1 mm 1 m/s 755 mm Hg 88%
23:00 +23°C° 0.2 mm 1 m/s 754 mm Hg 89%

Domani, 24 Settembre, Giovedi

Tempo Temperatura Precipitazioni Vento Pressione Umidità
00:00 +23°C° 0.2 mm 1 m/s 754 mm Hg 89%
01:00 +22°C° 0.2 mm 1 m/s 754 mm Hg 90%
02:00 +22°C° 0 mm 1 m/s 753 mm Hg 90%
03:00 +22°C° 0 mm 1 m/s 753 mm Hg 90%
04:00 +22°C° 0 mm 1 m/s 753 mm Hg 90%
05:00 +22°C° 0 mm 1 m/s 754 mm Hg 89%
06:00 +23°C° 0 mm 1 m/s 754 mm Hg 88%
07:00 +23°C° 0 mm 1 m/s 754 mm Hg 86%
08:00 +25°C° 0 mm 1 m/s 754 mm Hg 76%
09:00 +27°C° 0 mm 1 m/s 754 mm Hg 66%
10:00 +29°C° 0 mm 2 m/s 754 mm Hg 56%
11:00 +30°C° 0 mm 2 m/s 754 mm Hg 54%
12:00 +30°C° 0 mm 3 m/s 753 mm Hg 53%
13:00 +31°C° 0 mm 3 m/s 753 mm Hg 51%
14:00 +30°C° 0 mm 3 m/s 752 mm Hg 55%
15:00 +29°C° 0 mm 4 m/s 752 mm Hg 58%
16:00 +28°C° 0 mm 4 m/s 752 mm Hg 62%
17:00 +27°C° 0 mm 3 m/s 752 mm Hg 68%
18:00 +25°C° 0 mm 2 m/s 753 mm Hg 74%
19:00 +24°C° 0 mm 2 m/s 753 mm Hg 80%
20:00 +24°C° 0 mm 1 m/s 753 mm Hg 82%
21:00 +23°C° 0 mm 1 m/s 754 mm Hg 84%
22:00 +23°C° 0 mm 1 m/s 754 mm Hg 86%
23:00 +23°C° 0 mm 1 m/s 754 mm Hg 87%

Dopodomani, 25 Settembre, Venerdi

Tempo Temperatura Precipitazioni Vento Pressione Umidità
00:00 +22°C° 0 mm 1 m/s 754 mm Hg 88%
01:00 +22°C° 0 mm 1 m/s 753 mm Hg 89%
02:00 +22°C° 0 mm 1 m/s 753 mm Hg 89%
03:00 +22°C° 0 mm 1 m/s 753 mm Hg 90%
04:00 +20°C° 0 mm 0 m/s 753 mm Hg 90%
05:00 +20°C° 0 mm 0 m/s 753 mm Hg 87%
06:00 +21°C° 0 mm 0 m/s 754 mm Hg 85%
07:00 +21°C° 0 mm 0 m/s 754 mm Hg 82%
08:00 +25°C° 0 mm 1 m/s 754 mm Hg 72%
09:00 +27°C° 0 mm 2 m/s 754 mm Hg 63%
10:00 +29°C° 0 mm 2 m/s 754 mm Hg 53%
11:00 +29°C° 0 mm 2 m/s 754 mm Hg 52%
12:00 +30°C° 0 mm 3 m/s 753 mm Hg 50%
13:00 +30°C° 0 mm 3 m/s 752 mm Hg 49%
14:00 +29°C° 0 mm 3 m/s 752 mm Hg 53%
15:00 +28°C° 0 mm 3 m/s 752 mm Hg 56%
16:00 +27°C° 0 mm 4 m/s 752 mm Hg 60%
17:00 +26°C° 0 mm 3 m/s 752 mm Hg 66%
18:00 +25°C° 0 mm 2 m/s 752 mm Hg 71%
19:00 +24°C° 0 mm 1 m/s 753 mm Hg 77%
20:00 +24°C° 0 mm 1 m/s 753 mm Hg 80%
21:00 +23°C° 0 mm 1 m/s 754 mm Hg 83%
22:00 +22°C° 0 mm 1 m/s 754 mm Hg 86%
23:00 +22°C° 0 mm 1 m/s 754 mm Hg 87%

26 Settembre, Sabato

Tempo Temperatura Precipitazioni Vento Pressione Umidità
00:00 +22°C° 0 mm 1 m/s 754 mm Hg 88%
01:00 +21°C° 0 mm 1 m/s 754 mm Hg 89%
02:00 +21°C° 0 mm 1 m/s 754 mm Hg 90%
03:00 +21°C° 0 mm 1 m/s 754 mm Hg 90%
04:00 +21°C° 0 mm 1 m/s 754 mm Hg 90%
05:00 +21°C° 0 mm 1 m/s 754 mm Hg 86%
06:00 +22°C° 0 mm 1 m/s 755 mm Hg 83%
07:00 +23°C° 0 mm 2 m/s 755 mm Hg 79%
08:00 +25°C° 0 mm 2 m/s 755 mm Hg 65%
09:00 +28°C° 0 mm 2 m/s 755 mm Hg 50%
10:00 +31°C° 0 mm 2 m/s 756 mm Hg 36%
11:00 +33°C° 0 mm 3 m/s 755 mm Hg 34%
12:00 +34°C° 0 mm 3 m/s 754 mm Hg 33%
13:00 +34°C° 0 mm 4 m/s 754 mm Hg 32%
14:00 +33°C° 0 mm 4 m/s 754 mm Hg 38%
15:00 +31°C° 0 mm 3 m/s 753 mm Hg 44%
16:00 +30°C° 0 mm 3 m/s 753 mm Hg 50%
17:00 +28°C° 0 mm 2 m/s 753 mm Hg 60%
18:00 +26°C° 0 mm 1 m/s 754 mm Hg 70%
19:00 +23°C° 0 mm 1 m/s 754 mm Hg 81%
20:00 +23°C° 0 mm 1 m/s 755 mm Hg 82%
21:00 +23°C° 0 mm 1 m/s 755 mm Hg 83%
22:00 +21°C° 0 mm 2 m/s 756 mm Hg 85%
23:00 +21°C° 0 mm 2 m/s 756 mm Hg 86%

27 Settembre, Domenica

Tempo Temperatura Precipitazioni Vento Pressione Umidità
00:00 +20°C° 0 mm 2 m/s 755 mm Hg 88%
01:00 +20°C° 0 mm 2 m/s 755 mm Hg 89%
02:00 +20°C° 0 mm 2 m/s 755 mm Hg 89%
03:00 +19°C° 0 mm 2 m/s 755 mm Hg 89%
04:00 +19°C° 0 mm 2 m/s 755 mm Hg 89%
05:00 +19°C° 0 mm 2 m/s 756 mm Hg 85%
06:00 +20°C° 0 mm 2 m/s 756 mm Hg 80%
07:00 +21°C° 0 mm 2 m/s 757 mm Hg 76%
08:00 +24°C° 0 mm 2 m/s 757 mm Hg 62%
09:00 +27°C° 0 mm 2 m/s 757 mm Hg 48%
10:00 +30°C° 0 mm 2 m/s 757 mm Hg 34%
11:00 +30°C° 0 mm 3 m/s 757 mm Hg 36%
12:00 +30°C° 0 mm 4 m/s 756 mm Hg 37%
13:00 +32°C° 0 mm 4 m/s 755 mm Hg 39%
14:00 +30°C° 0 mm 4 m/s 755 mm Hg 45%
15:00 +29°C° 0 mm 4 m/s 754 mm Hg 51%
16:00 +28°C° 0 mm 4 m/s 754 mm Hg 58%
17:00 +26°C° 0 mm 4 m/s 755 mm Hg 66%
18:00 +25°C° 0 mm 4 m/s 755 mm Hg 75%
19:00 +22°C° 0 mm 4 m/s 756 mm Hg 83%
20:00 +22°C° 0 mm 4 m/s 756 mm Hg 85%
21:00 +22°C° 0 mm 4 m/s 757 mm Hg 86%
22:00 +22°C° 0 mm 4 m/s 757 mm Hg 87%
23:00 +22°C° 0.1 mm 4 m/s 757 mm Hg 86%

28 Settembre, Lunedi

Tempo Temperatura Precipitazioni Vento Pressione Umidità
00:00 +22°C° 0.1 mm 4 m/s 757 mm Hg 85%
01:00 +22°C° 0.1 mm 4 m/s 757 mm Hg 84%
02:00 +21°C° 0.1 mm 4 m/s 756 mm Hg 85%
03:00 +21°C° 0.1 mm 4 m/s 756 mm Hg 85%
04:00 +21°C° 0.1 mm 4 m/s 756 mm Hg 85%
05:00 +21°C° 0 mm 4 m/s 756 mm Hg 84%
06:00 +21°C° 0 mm 4 m/s 757 mm Hg 83%
07:00 +21°C° 0 mm 4 m/s 757 mm Hg 81%
08:00 +23°C° 0 mm 4 m/s 757 mm Hg 70%
09:00 +26°C° 0 mm 4 m/s 758 mm Hg 58%
10:00 +28°C° 0 mm 4 m/s 758 mm Hg 47%
11:00 +28°C° 0 mm 5 m/s 757 mm Hg 45%
12:00 +29°C° 0 mm 6 m/s 756 mm Hg 44%
13:00 +29°C° 0 mm 7 m/s 756 mm Hg 42%
14:00 +29°C° 0 mm 7 m/s 755 mm Hg 44%
15:00 +28°C° 0 mm 7 m/s 755 mm Hg 45%
16:00 +27°C° 0 mm 7 m/s 755 mm Hg 47%
17:00 +26°C° 0 mm 6 m/s 755 mm Hg 53%
18:00 +23°C° 0 mm 6 m/s 756 mm Hg 59%
19:00 +22°C° 0 mm 5 m/s 756 mm Hg 64%
20:00 +21°C° 0 mm 5 m/s 756 mm Hg 66%
21:00 +20°C° 0 mm 5 m/s 757 mm Hg 68%
22:00 +20°C° 0 mm 5 m/s 757 mm Hg 70%
23:00 +20°C° 0 mm 5 m/s 757 mm Hg 72%
Mostrare altro